Regional Weather Roundup
Issued by NWS

Home | Current Version | Previous Version | Graphics & Text | Print | Product List | Glossary Off
Versions: 1 2 3 4 5 6 7 8 9 10 11 12 13 14 15 16 17 18 19 20 21 22 23 24 25 26 27 28 29 30 31 32 33 34 35 36 37 38 39 40 41 42 43 44 45 46 47 48 49 50

000
ASUS45 KBOU 230807
RWRCO

WEATHER ROUNDUP FOR COLORADO
NATIONAL WEATHER SERVICE DENVER/BOULDER CO
200 AM MDT SAT MAY 23 2015

NOTE: "FAIR" INDICATES FEW OR NO CLOUDS BELOW 12000 FEET WITH NO
SIGNIFICANT WEATHER AND/OR OBSTRUCTIONS TO VISIBILITY.

COZ001>005-013-030-031-230900-
...NORTHWEST COLORADO...

CITY           SKY/WX    TMP DP  RH WIND       PRES   REMARKS
CRAIG          PTCLDY    44  39  82 VRB5      30.04S
HAYDEN         MOCLDY    43  37  81 E12       30.05F
MEEKER         CLOUDY    42  39  89 MISG      30.03F
MOUNT WERNER   NOT AVBL
STEAMBOAT SPGS MOCLDY    38  36  91 CALM      30.08S
WALDEN         MOCLDY    36  34  93 E5        30.03F
$$

COZ006>008-011-230900-
...WEST CENTRAL VALLEYS...

CITY           SKY/WX    TMP DP  RH WIND       PRES   REMARKS
GRAND JUNCTION MOCLDY    48  45  89 W5        29.96S
MONTROSE       MOCLDY    50  37  61 S20       30.03R
EAGLE          CLOUDY    45  43  93 CALM      30.09S
RIFLE          PTCLDY    45  40  82 SE5       30.01F
DELTA          MOCLDY    52  42  68 MISG      30.00R
NUCLA          MOCLDY    50  36  57 E5        30.04F
$$

COZ017>023-064>068-230900-
...SOUTHWEST COLORADO...

CITY           SKY/WX    TMP DP  RH WIND       PRES   REMARKS
DURANGO        CLOUDY    47  39  74 CALM      30.04R
CORTEZ         MOCLDY    47  37  68 CALM      30.03R
PAGOSA SPRINGS CLOUDY    44  39  83 NW5       30.06F
TELLURIDE      FLURRIES  37  33  84 CALM      30.15R
WOLF CREEK PAS NOT AVBL
$$

COZ009-010-012-014-032>034-037-058>063-230900-
...CENTRAL COLORADO...

CITY           SKY/WX    TMP DP  RH WIND       PRES   REMARKS
ASPEN          CLOUDY    42  36  79 SE6       30.08F
BUENA VISTA    MOCLDY    42  36  77 NW7       30.09S
COPPER MTN     CLOUDY    32  27  80 SW8       30.22F WCI  25
BERTHOUD PASS  SNOW      25  18  74 W14       30.25S VSB 1/2 WCI  13
COTTONWOOD PAS MOCLDY    39  32  75 CALM      30.16R
GUNNISON       CLOUDY    39  34  81 SE5       30.12F
KREMMLING      CLOUDY    41  36  81 CALM      30.12R
LEADVILLE      MOCLDY    30  30 100 N3        30.14F
MONARCH PASS   FOG       30  28  93 MISG      30.32R VSB<1/4
SALIDA         CLOUDY    49  37  63 SW5       30.15S
SUNLIGHT       CLOUDY    34  32  93 E3        30.19S
WILKERSON PASS CLOUDY    32  30  93 S3        30.24S
$$

COZ069>075-230900-
...SAN LUIS VALLEY/SANGRE DE CRISTO MOUNTAINS...

CITY           SKY/WX    TMP DP  RH WIND       PRES   REMARKS
ALAMOSA        CLOUDY    47  37  68 N12       30.07R
LA VETA PASS   MOCLDY   N/A N/A N/A MISG      30.16F
SAGUACHE       MOCLDY    41  36  81 NW10      30.11R
$$

COZ035-036-038>040-230900-
...NORTHERN COLORADO FRONT RANGE...

CITY           SKY/WX    TMP DP  RH WIND       PRES   REMARKS
DENVER INTL AP CLOUDY    49  47  93 CALM      30.06R
DMNS CITY PARK   N/A     48  47  98 E2        30.05S
AURORA         MOCLDY    46  46  99 CALM      30.06F
FRONT RANGE AP NOT AVBL
ERIE MUNI ARPT CLOUDY    47  46  97 CALM      30.04S FOG
BOULDER MUN AP CLOUDY    46  46 100 CALM      30.04S FOG
CENTENNIAL     CLOUDY    48  46  93 S5        30.06S
BROOMFIELD     CLOUDY    46  46 100 SE3       30.07R FOG
FORT COLLINS   MOCLDY    48  46  93 E7        30.05F
LONGMONT       MOCLDY    47  46  93 CALM      30.06S FOG
$$

COZ041-046-047-076>085-087-088-230900-
...PIKES PEAK/PALMER DIVIDE AND SOUTHERN FOOTHILLS...

CITY           SKY/WX    TMP DP  RH WIND       PRES   REMARKS
COLO. SPRINGS  MOCLDY    48  44  86 N16       30.04F
A. F. ACADEMY  MOCLDY    46  45  93 NW6       30.06F
ELLICOTT       NOT AVBL
FALCON         DRIZZLE   45  44  96 N14G20    30.07F
FORT CARSON    MOCLDY    48  47  96 N15       30.02F
LIMON          CLOUDY    49  47  93 N6        30.04R
MONUMENT HILL  NOT AVBL
TRINIDAD       PTCLDY    58  40  51 S17G29    29.98F
$$

COZ042>045-048>051-090-091-230900-
...NORTHEAST COLORADO...

CITY           SKY/WX    TMP DP  RH WIND       PRES   REMARKS
GREELEY ARPT   CLOUDY    48  46  93 SE5       30.05S
AKRON          CLOUDY    49  49 100 SE14      30.04S
BURLINGTON     FOG       54  53  97 SE14      30.02R VSB 1/2
WRAY           CLOUDY   N/A N/A N/A E17       30.02S
STERLING       FOG       48  48 100 NE7       30.02F VSB 3/4
HOLYOKE        NOT AVBL
FORT MORGAN    FOG       48  47  95 E8        30.04S VSB 1/4
$$

COZ086-089-092>099-230900-
...SOUTHEAST COLORADO...

CITY           SKY/WX    TMP DP  RH WIND       PRES   REMARKS
PUEBLO         PTCLDY    51  46  83 N14       29.97R
LA JUNTA       MOCLDY    54  50  86 W9        29.95R
LAMAR          MOCLDY    55  53  93 E8        29.95S
SPRINGFIELD      N/A     55  53  93 S21G31    30.01R
$$


USA.gov is the U.S. government's official web portal to all federal, state and local government web resources and services.